Little Rock AFB, AR

2:08 AM CDT on May 26, 2018 (GMT -0500)
Little Rock Air Force Base

Weather History for KLRF - October, 2012

Change the Weather History Date:

Monday, October 8, 2012

  Actual Average Record
Temperature  
Mean Temperature 51 °F -  
Max Temperature 62 °F 75 °F 90 °F (1980)
Min Temperature 41 °F 51 °F 35 °F (1987)
Degree Days  
Heating Degree Days 14    
Growing Degree Days 1 (Base 50)    
Moisture  
Dew Point 42 °F    
Average Humidity 88    
Maximum Humidity 100    
Minimum Humidity 47    
Precipitation  
Precipitation 0.04 in - - ()
Sea Level Pressure  
Sea Level Pressure 30.23 in    
Wind  
Wind Speed 1 mph (WSW)    
Max Wind Speed 8 mph    
Max Gust Speed -    
Visibility 5 miles    
Events Fog , Rain    
Averages and records for this station are not official NWS values.
T = Trace of Precipitation, MM = Missing Value Source: NWS Daily Summary

Daily Weather History Graph

Daily Weather History Graph

Search for Another Location

Airport or City:

Astronomy

Oct. 08, 2012 Rise Set
Actual Time 7:09 AM CDT 6:42 PM CDT
Civil Twilight 6:43 AM CDT 7:07 PM CDT
Nautical Twilight 6:14 AM CDT 7:36 PM CDT
Astronomical Twilight 5:45 AM CDT 8:06 PM CDT
Moon 12:04 AM CDT (10/8) 2:17 PM CDT (10/8)
Length of Visible Light 12h 23m
Length of Day
11h 33m
Last Quarter, 46% of the Moon is Illuminated
Oct 8
Last Quarter
Oct 15
New
Oct 21
First Quarter
Oct 29
Full
Nov 6
Last Quarter

Hourly Weather History & Observations

Time (CDT) Temp. Windchill Dew Point Humidity Pressure Visibility Wind Dir Wind Speed Gust Speed Precip Events Conditions
12:29 AM 51.8 °F - 46.4 °F 82% 30.23 in 2.5 mi Calm Calm - N/A   Haze
12:36 AM 51.8 °F - 44.6 °F 76% 30.22 in 3.0 mi Calm Calm - N/A   Haze
12:55 AM 50.5 °F - 46.6 °F 86% 30.22 in 8.0 mi South 3.5 mph - N/A   Scattered Clouds
1:41 AM 50.0 °F - 44.6 °F 82% 30.24 in 10.0 mi NNW 8.1 mph - N/A Rain Light Rain
1:55 AM 50.0 °F - 45.9 °F 86% 30.25 in 9.0 mi NW 6.9 mph - 0.00 in Rain Light Rain
2:55 AM 47.5 °F - 44.2 °F 89% 30.24 in 10.0 mi North 4.6 mph - 0.04 in Rain Light Rain
3:00 AM 48.2 °F - 44.6 °F 87% 30.25 in 10.0 mi NNW 3.5 mph - N/A Rain Light Rain
3:07 AM 48.2 °F - 44.6 °F 87% 30.24 in 10.0 mi North 3.5 mph - N/A Rain Light Rain
3:25 AM 46.4 °F - 44.6 °F 93% 30.24 in 10.0 mi Calm Calm - N/A   Mostly Cloudy
3:55 AM 46.8 °F - 44.1 °F 90% 30.24 in 10.0 mi Calm Calm - 0.00 in   Overcast
4:55 AM 46.6 °F - 44.1 °F 91% 30.24 in 10.0 mi Calm Calm - N/A   Mostly Cloudy
5:55 AM 44.1 °F - 43.0 °F 96% 30.25 in 10.0 mi Calm Calm - N/A   Scattered Clouds
6:11 AM 42.8 °F - 42.8 °F 100% 30.24 in 0.5 mi Calm Calm - N/A Fog Fog
6:15 AM 42.8 °F - 42.8 °F 100% 30.25 in 0.5 mi Calm Calm - N/A Fog Fog
6:18 AM 42.8 °F - 42.8 °F 100% 30.25 in 0.5 mi Calm Calm - N/A Fog Fog
6:20 AM 42.8 °F - 42.8 °F 100% 30.25 in 0.8 mi Calm Calm - N/A   Partly Cloudy
6:29 AM 42.8 °F - 41.0 °F 93% 30.25 in 0.5 mi Calm Calm - N/A Fog Fog
6:30 AM 42.8 °F - 41.0 °F 93% 30.25 in 0.5 mi Calm Calm - N/A Fog Fog
6:32 AM 42.8 °F - 41.0 °F 93% 30.25 in 0.8 mi Calm Calm - N/A   Clear
6:33 AM 42.8 °F - 41.0 °F 93% 30.25 in 0.8 mi Calm Calm - N/A   Clear
6:36 AM 42.8 °F - 41.0 °F 93% 30.25 in 1.2 mi Calm Calm - N/A   Clear
6:38 AM 42.8 °F - 42.8 °F 100% 30.25 in 1.5 mi Calm Calm - N/A   Clear
6:40 AM 42.8 °F - 42.8 °F 100% 30.25 in 1.2 mi Calm Calm - N/A   Clear
6:42 AM 42.8 °F - 41.0 °F 93% 30.25 in 1.5 mi Calm Calm - N/A   Clear
6:44 AM 42.8 °F - 41.0 °F 93% 30.25 in 1.2 mi Calm Calm - N/A   Clear
6:47 AM 42.8 °F - 41.0 °F 93% 30.25 in 0.8 mi Calm Calm - N/A   Clear
6:48 AM 42.8 °F - 41.0 °F 93% 30.25 in 0.8 mi Calm Calm - N/A   Clear
6:55 AM 42.1 °F - 41.4 °F 97% 30.25 in 0.8 mi Calm Calm - N/A   Clear
6:56 AM 42.8 °F - 41.0 °F 93% 30.25 in 0.5 mi Calm Calm - N/A Fog Fog
7:04 AM 41.0 °F - 41.0 °F 100% 30.25 in 0.5 mi Calm Calm - N/A Fog Fog
7:06 AM 41.0 °F - 41.0 °F 100% 30.25 in 0.5 mi Calm Calm - N/A Fog Fog
7:07 AM 41.0 °F - 41.0 °F 100% 30.25 in 0.8 mi Calm Calm - N/A   Clear
7:09 AM 41.0 °F - 41.0 °F 100% 30.25 in 1.0 mi Calm Calm - N/A   Clear
7:13 AM 41.0 °F - 41.0 °F 100% 30.25 in 2.0 mi Calm Calm - N/A   Clear
7:15 AM 41.0 °F - 41.0 °F 100% 30.25 in 2.5 mi Calm Calm - N/A   Clear
7:22 AM 41.0 °F - 41.0 °F 100% 30.26 in 0.8 mi Calm Calm - N/A   Clear
7:24 AM 41.0 °F - 41.0 °F 100% 30.26 in 0.5 mi Calm Calm - N/A Fog Fog
7:27 AM 41.0 °F - 41.0 °F 100% 30.25 in 0.5 mi Calm Calm - N/A Fog Fog
7:28 AM 41.0 °F - 41.0 °F 100% 30.26 in 0.2 mi Calm Calm - N/A Fog Fog
7:33 AM 41.0 °F - 41.0 °F 100% 30.26 in 0.2 mi Calm Calm - N/A Fog Fog
7:40 AM 41.0 °F - 41.0 °F 100% 30.26 in 0.2 mi Calm Calm - N/A Fog Fog
7:42 AM 41.0 °F - 41.0 °F 100% 30.26 in 0.5 mi Calm Calm - N/A Fog Fog
7:50 AM 42.8 °F - 41.0 °F 93% 30.26 in 0.5 mi Calm Calm - N/A Fog Fog
7:55 AM 42.6 °F - 42.1 °F 98% 30.27 in 0.8 mi Calm Calm - N/A   Clear
7:59 AM 42.8 °F - 42.8 °F 100% 30.27 in 3.0 mi Calm Calm - N/A   Clear
8:15 AM 44.6 °F - 44.6 °F 100% 30.27 in 2.5 mi Calm Calm - N/A   Clear
8:18 AM 44.6 °F - 44.6 °F 100% 30.27 in 3.0 mi Calm Calm - N/A   Clear
8:55 AM 47.8 °F - 47.7 °F 99% 30.27 in 10.0 mi Calm Calm - N/A   Clear
9:55 AM 52.5 °F - 43.0 °F 70% 30.28 in 9.0 mi Calm Calm - N/A   Clear
10:55 AM 54.3 °F - 41.4 °F 62% 30.27 in 10.0 mi Variable 3.5 mph - N/A   Partly Cloudy
11:55 AM 56.7 °F - 40.8 °F 55% 30.26 in 10.0 mi Calm Calm - N/A   Scattered Clouds
12:55 PM 59.2 °F - 39.7 °F 49% 30.23 in 10.0 mi SW 6.9 mph - N/A   Mostly Cloudy
1:55 PM 59.4 °F - 40.5 °F 50% 30.20 in 10.0 mi Variable 4.6 mph - N/A   Mostly Cloudy
2:55 PM 59.5 °F - 40.3 °F 49% 30.18 in 10.0 mi WSW 4.6 mph - N/A   Overcast
3:55 PM 60.3 °F - 41.0 °F 49% 30.17 in 10.0 mi SSE 3.5 mph - N/A   Mostly Cloudy
4:55 PM 61.9 °F - 41.5 °F 47% 30.15 in 10.0 mi SSW 6.9 mph - N/A   Scattered Clouds
5:55 PM 60.1 °F - 41.9 °F 51% 30.15 in 10.0 mi SSE 4.6 mph - N/A   Clear
6:55 PM 54.0 °F - 44.2 °F 70% 30.14 in 10.0 mi South 3.5 mph - N/A   Clear
7:55 PM 48.2 °F - 43.7 °F 84% 30.14 in 10.0 mi Calm Calm - N/A   Clear
8:55 PM 45.7 °F - 43.3 °F 92% 30.15 in 10.0 mi Calm Calm - N/A   Clear
9:55 PM 45.0 °F - 42.4 °F 91% 30.15 in 10.0 mi Calm Calm - N/A   Clear
10:55 PM 42.8 °F 41.1 °F 41.2 °F 94% 30.16 in 10.0 mi ENE 3.5 mph - N/A   Clear
11:55 PM 42.1 °F - 40.5 °F 94% 30.15 in 10.0 mi Calm Calm - N/A   Clear